TimeCDT,TemperatureF,Dew PointF,Humidity,Sea Level PressureIn,VisibilityMPH,Wind Direction,Wind SpeedMPH,Gust SpeedMPH,PrecipitationIn,Events,Conditions,WindDirDegrees,DateUTC
12:15 AM,28.0,16.7,62,30.35,10.0,Calm,Calm,-,N/A,,Clear,0,2013-04-03 05:15:00
12:35 AM,25.2,18.3,75,30.35,10.0,Calm,Calm,-,N/A,,Clear,0,2013-04-03 05:35:00
12:55 AM,24.8,18.1,76,30.36,10.0,Calm,Calm,-,N/A,,Clear,0,2013-04-03 05:55:00
1:15 AM,24.6,19.2,80,30.36,10.0,Calm,Calm,-,N/A,,Clear,0,2013-04-03 06:15:00
1:35 AM,24.8,18.5,77,30.36,10.0,Calm,Calm,-,N/A,,Clear,0,2013-04-03 06:35:00
1:55 AM,23.9,17.6,77,30.36,10.0,Calm,Calm,-,N/A,,Clear,0,2013-04-03 06:55:00
2:15 AM,24.3,18.0,77,30.37,10.0,Calm,Calm,-,N/A,,Clear,0,2013-04-03 07:15:00
2:35 AM,23.2,18.1,81,30.37,10.0,Calm,Calm,-,N/A,,Clear,0,2013-04-03 07:35:00
2:55 AM,23.0,18.0,81,30.37,10.0,Calm,Calm,-,N/A,,Clear,0,2013-04-03 07:55:00
3:15 AM,22.3,17.8,83,30.37,10.0,Calm,Calm,-,N/A,,Clear,0,2013-04-03 08:15:00
3:35 AM,22.5,17.6,82,30.37,10.0,Calm,Calm,-,N/A,,Clear,0,2013-04-03 08:35:00
4:15 AM,22.1,17.4,82,30.38,10.0,Calm,Calm,-,N/A,,Clear,0,2013-04-03 09:15:00
4:35 AM,22.5,18.0,83,30.39,10.0,Calm,Calm,-,N/A,,Clear,0,2013-04-03 09:35:00
4:55 AM,21.0,17.2,85,30.38,10.0,Calm,Calm,-,N/A,,Clear,0,2013-04-03 09:55:00
5:15 AM,21.2,17.6,86,30.39,10.0,Calm,Calm,-,N/A,,Clear,0,2013-04-03 10:15:00
5:35 AM,21.2,17.8,87,30.39,10.0,Calm,Calm,-,N/A,,Clear,0,2013-04-03 10:35:00
5:55 AM,20.3,17.1,87,30.40,10.0,Calm,Calm,-,N/A,,Clear,0,2013-04-03 10:55:00
6:15 AM,20.5,16.7,85,30.41,10.0,Calm,Calm,-,N/A,,Clear,0,2013-04-03 11:15:00
6:35 AM,20.1,17.1,88,30.42,10.0,Calm,Calm,-,N/A,,Clear,0,2013-04-03 11:35:00
6:55 AM,20.7,17.1,86,30.44,10.0,Calm,Calm,-,N/A,,Clear,0,2013-04-03 11:55:00
7:15 AM,20.7,17.2,87,30.44,10.0,Calm,Calm,-,N/A,,Clear,0,2013-04-03 12:15:00
7:35 AM,22.6,18.7,85,30.45,10.0,Calm,Calm,-,N/A,,Clear,0,2013-04-03 12:35:00
7:55 AM,24.6,20.1,83,30.45,10.0,Calm,Calm,-,N/A,,Clear,0,2013-04-03 12:55:00
8:15 AM,26.1,21.7,84,30.45,10.0,Calm,Calm,-,N/A,,Clear,0,2013-04-03 13:15:00
8:35 AM,27.3,22.1,81,30.44,10.0,Calm,Calm,-,N/A,,Clear,0,2013-04-03 13:35:00
8:55 AM,29.5,21.4,72,30.44,10.0,Calm,Calm,-,N/A,,Clear,0,2013-04-03 13:55:00
9:15 AM,30.7,21.7,69,30.44,10.0,Calm,Calm,-,N/A,,Clear,0,2013-04-03 14:15:00
9:35 AM,31.6,22.3,68,30.44,10.0,Calm,Calm,-,N/A,,Clear,0,2013-04-03 14:35:00
9:55 AM,32.5,21.9,65,30.44,10.0,Calm,Calm,-,N/A,,Clear,0,2013-04-03 14:55:00
10:15 AM,35.2,18.3,50,30.43,10.0,Calm,Calm,-,N/A,,Clear,0,2013-04-03 15:15:00
10:35 AM,36.3,14.5,41,30.43,10.0,ESE,4.6,-,N/A,,Clear,110,2013-04-03 15:35:00
10:55 AM,37.9,10.0,32,30.42,10.0,East,4.6,-,N/A,,Clear,90,2013-04-03 15:55:00
11:15 AM,38.5,12.4,34,30.42,10.0,Calm,Calm,-,N/A,,Clear,0,2013-04-03 16:15:00
11:35 AM,39.6,11.3,31,30.42,10.0,SW,5.8,-,N/A,,Clear,220,2013-04-03 16:35:00
11:55 AM,40.8,10.4,29,30.41,10.0,SE,6.9,-,N/A,,Clear,140,2013-04-03 16:55:00
12:15 PM,40.8,9.0,27,30.41,10.0,ESE,6.9,-,N/A,,Clear,120,2013-04-03 17:15:00
12:35 PM,41.0,10.8,29,30.39,10.0,South,3.5,-,N/A,,Clear,170,2013-04-03 17:35:00
12:55 PM,41.5,11.5,29,30.39,10.0,SE,4.6,-,N/A,,Clear,140,2013-04-03 17:55:00
1:15 PM,42.6,12.2,29,30.39,10.0,SE,5.8,-,N/A,,Clear,140,2013-04-03 18:15:00
1:35 PM,42.3,11.5,29,30.39,10.0,South,9.2,-,N/A,,Clear,190,2013-04-03 18:35:00
1:55 PM,42.8,11.5,28,30.39,10.0,SW,9.2,-,N/A,,Clear,220,2013-04-03 18:55:00
2:15 PM,43.2,9.7,26,30.38,10.0,SSE,6.9,-,N/A,,Clear,150,2013-04-03 19:15:00
2:35 PM,43.7,10.8,26,30.38,10.0,SE,8.1,-,N/A,,Clear,140,2013-04-03 19:35:00
2:55 PM,44.2,11.1,26,30.37,10.0,South,3.5,-,N/A,,Clear,190,2013-04-03 19:55:00
3:15 PM,44.2,12.0,27,30.36,10.0,Calm,Calm,-,N/A,,Clear,0,2013-04-03 20:15:00
3:35 PM,43.9,11.8,27,30.34,10.0,SSW,4.6,-,N/A,,Clear,200,2013-04-03 20:35:00
3:55 PM,45.0,13.3,28,30.34,10.0,South,5.8,-,N/A,,Clear,180,2013-04-03 20:55:00
4:15 PM,45.3,11.3,25,30.33,10.0,SE,5.8,-,N/A,,Clear,140,2013-04-03 21:15:00
4:35 PM,45.3,12.9,27,30.33,10.0,SSE,4.6,-,N/A,,Clear,150,2013-04-03 21:35:00
4:55 PM,45.1,14.4,29,30.32,10.0,South,4.6,-,N/A,,Clear,180,2013-04-03 21:55:00
5:15 PM,45.5,14.2,28,30.31,10.0,South,4.6,-,N/A,,Clear,180,2013-04-03 22:15:00
5:35 PM,44.6,13.8,29,30.31,10.0,SSE,4.6,-,N/A,,Clear,150,2013-04-03 22:35:00
5:55 PM,44.8,13.3,28,30.31,10.0,SSE,3.5,-,N/A,,Clear,150,2013-04-03 22:55:00
6:15 PM,44.1,14.9,31,30.30,10.0,South,6.9,-,N/A,,Clear,180,2013-04-03 23:15:00
6:35 PM,43.9,15.8,32,30.30,10.0,South,6.9,-,N/A,,Clear,180,2013-04-03 23:35:00
6:55 PM,43.5,16.7,34,30.29,10.0,South,4.6,-,N/A,,Clear,180,2013-04-03 23:55:00
7:15 PM,42.8,16.5,35,30.29,10.0,South,3.5,-,N/A,,Clear,180,2013-04-04 00:15:00
7:35 PM,42.1,16.5,36,30.29,10.0,Calm,Calm,-,N/A,,Clear,0,2013-04-04 00:35:00
7:55 PM,41.2,16.7,37,30.28,10.0,Calm,Calm,-,N/A,,Clear,0,2013-04-04 00:55:00
8:15 PM,41.4,16.2,36,30.28,10.0,Calm,Calm,-,N/A,,Clear,0,2013-04-04 01:15:00
8:35 PM,40.1,17.4,40,30.28,10.0,Calm,Calm,-,N/A,,Clear,0,2013-04-04 01:35:00
8:55 PM,38.5,19.0,46,30.28,10.0,Calm,Calm,-,N/A,,Clear,0,2013-04-04 01:55:00
9:15 PM,37.6,20.3,50,30.28,10.0,Calm,Calm,-,N/A,,Clear,0,2013-04-04 02:15:00
9:35 PM,35.4,21.0,56,30.28,10.0,Calm,Calm,-,N/A,,Clear,0,2013-04-04 02:35:00
9:55 PM,36.7,20.1,51,30.28,10.0,ESE,3.5,-,N/A,,Clear,120,2013-04-04 02:55:00
10:15 PM,36.9,19.4,49,30.28,10.0,Calm,Calm,-,N/A,,Clear,0,2013-04-04 03:15:00
10:35 PM,36.1,19.6,51,30.27,10.0,Calm,Calm,-,N/A,,Clear,0,2013-04-04 03:35:00
10:55 PM,35.1,20.3,55,30.26,10.0,ESE,3.5,-,N/A,,Clear,110,2013-04-04 03:55:00
11:15 PM,35.1,19.9,54,30.26,10.0,Calm,Calm,-,N/A,,Clear,0,2013-04-04 04:15:00
11:35 PM,35.8,19.6,52,30.26,10.0,Calm,Calm,-,N/A,,Clear,0,2013-04-04 04:35:00
11:55 PM,36.7,19.9,51,30.26,10.0,Calm,Calm,-,N/A,,Clear,0,2013-04-04 04:55:00